User: anonymous
Location: Brno
(49.2000°N, 16.6330°E)
Time: 06:36:08
(UTC+02:00)
Language:

CARTOSAT-1 - Orbit

View from above orbital plane
View from above orbital plane
View from above satellite
View from above satellite

Ground track
Ground track

The orbit data is extracted from the following two-line orbital elements,

1 28649U 05017A   14245.76669225  .00000007  00000-0  71531-5 0  5570
2 28649 097.8278 318.2549 0002897 087.5349 272.6130 14.83460782504997
Epoch (UTC): 02 September 2014 18:24:02
Eccentricity: 0.0002897
inclination: 97.8278°
perigee height: 616 km
apogee height: 620 km
right ascension of ascending node: 318.2549°
argument of perigee: 87.5349°
revolutions per day: 14.83460782
mean anomaly at epoch: 272.6130°
orbit number at epoch: 50499

The dashed part of the orbit path shows where the satellite is in the earth's shadow,  

DLR